Weather History for Palacios, TX

Change the Weather History Date:

Saturday, June 15, 2013

  Actual Average Record
Temperature  
Mean Temperature 85 °F -  
Max Temperature 90 °F 88 °F 96 °F (1948)
Min Temperature 80 °F 74 °F 65 °F (1979)
Cooling Degree Days 20    
Growing Degree Days 35 (Base 50)    
Moisture  
Dew Point 74 °F    
Average Humidity 71    
Maximum Humidity 84    
Minimum Humidity 57    
Precipitation  
Precipitation 0.00 in - - ()
Sea Level Pressure  
Sea Level Pressure 29.94 in    
Wind  
Wind Speed 8 mph (South)    
Max Wind Speed 13 mph    
Max Gust Speed -    
Visibility 10 miles    
Events      
Averages and records for this station are not official NWS values.
T = Trace of Precipitation, MM = Missing Value Source: NWS Daily Summary

Daily Weather History Graph

Daily Weather History Graph

Search for Another Location

Airport:

Trip Planner

Search our weather history database for the weather conditions in past years. The results will help you decide how hot, cold, wet, or windy it might be!

Date:

Astronomy

Jun. 15, 2013 Rise Set
Actual Time 6:26 AM CDT 8:24 PM CDT
Civil Twilight 5:59 AM CDT 8:51 PM CDT
Nautical Twilight 5:26 AM CDT 9:24 PM CDT
Astronomical Twilight 4:52 AM CDT 9:59 PM CDT
Moon 12:34 PM CDT (6/15) 12:26 AM CDT (6/15)
Length of Visible Light 14h 52m
Length of Day
13h 58m
Waxing Crescent, 40% of the Moon is Illuminated
Jun 15
Waxing Crescent
Jun 16
First Quarter
Jun 23
Full
Jun 29
Last Quarter
Jul 8
New

Hourly Weather History & Observations

Time (CDT) Temp. Heat Index Dew Point Humidity Pressure Visibility Wind Dir Wind Speed Gust Speed Precip Events Conditions
12:53 AM 82.0 °F 87.9 °F 73.9 °F 76% 29.94 in 10.0 mi South 6.9 mph - N/A   Clear
1:53 AM 82.0 °F 88.6 °F 75.0 °F 79% 29.94 in 10.0 mi South 5.8 mph - N/A   Clear
2:53 AM 81.0 °F 86.7 °F 75.0 °F 82% 29.92 in 10.0 mi South 5.8 mph - N/A   Scattered Clouds
3:04 AM 80.6 °F 86.2 °F 75.2 °F 84% 29.91 in 10.0 mi South 5.8 mph - N/A   Mostly Cloudy
3:11 AM 80.6 °F 86.2 °F 75.2 °F 84% 29.91 in 10.0 mi South 5.8 mph - N/A   Scattered Clouds
3:53 AM 82.0 °F 88.6 °F 75.0 °F 79% 29.90 in 10.0 mi South 8.1 mph - N/A   Partly Cloudy
4:53 AM 82.0 °F 88.6 °F 75.0 °F 79% 29.91 in 10.0 mi South 6.9 mph - N/A   Scattered Clouds
5:53 AM 82.0 °F 88.6 °F 75.0 °F 79% 29.93 in 10.0 mi SSE 6.9 mph - N/A   Scattered Clouds
6:53 AM 81.0 °F 86.7 °F 75.0 °F 82% 29.94 in 10.0 mi South 5.8 mph - N/A   Partly Cloudy
7:53 AM 82.9 °F 90.2 °F 75.0 °F 77% 29.96 in 10.0 mi South 8.1 mph - N/A   Clear
8:53 AM 87.1 °F 96.3 °F 75.0 °F 67% 29.98 in 10.0 mi South 5.8 mph - N/A   Clear
9:53 AM 86.0 °F 93.8 °F 73.9 °F 67% 29.99 in 10.0 mi South 8.1 mph - N/A   Clear
10:53 AM 87.1 °F 95.4 °F 73.9 °F 65% 30.00 in 10.0 mi South 8.1 mph - N/A   Scattered Clouds
11:53 AM 88.0 °F 95.6 °F 73.0 °F 61% 29.99 in 10.0 mi South 10.4 mph - N/A   Clear
12:53 PM 89.1 °F 99.1 °F 75.0 °F 63% 29.98 in 10.0 mi South 11.5 mph - N/A   Clear
1:53 PM 89.1 °F 98.0 °F 73.9 °F 61% 29.97 in 10.0 mi South 12.7 mph - N/A   Clear
2:53 PM 90.0 °F 97.9 °F 73.0 °F 57% 29.96 in 10.0 mi South 12.7 mph - N/A   Clear
3:53 PM 90.0 °F 97.9 °F 73.0 °F 57% 29.94 in 10.0 mi South 11.5 mph - N/A   Clear
4:53 PM 89.1 °F 98.0 °F 73.9 °F 61% 29.93 in 10.0 mi South 12.7 mph - N/A   Clear
5:53 PM 89.1 °F 98.0 °F 73.9 °F 61% 29.92 in 10.0 mi South 12.7 mph - N/A   Partly Cloudy
6:53 PM 88.0 °F 96.5 °F 73.9 °F 63% 29.91 in 10.0 mi SSE 12.7 mph - N/A   Clear
7:53 PM 86.0 °F 93.8 °F 73.9 °F 67% 29.92 in 10.0 mi SSE 8.1 mph - N/A   Clear
8:53 PM 84.0 °F 90.2 °F 73.0 °F 69% 29.94 in 10.0 mi SSE 9.2 mph - N/A   Clear
9:53 PM 82.9 °F 89.4 °F 73.9 °F 74% 29.95 in 10.0 mi SSE 10.4 mph - N/A   Clear
10:53 PM 82.9 °F 90.2 °F 75.0 °F 77% 29.96 in 10.0 mi SSE 12.7 mph - N/A   Clear
11:53 PM 82.9 °F 90.2 °F 75.0 °F 77% 29.96 in 10.0 mi SSE 11.5 mph - N/A   Partly Cloudy